Theta_e
279 277 273 273 276 277 276 275 273 275 279 277 274 275 278 280 278 279 279 278 279 279 282 285 286 286 286 286 286 286 286 287 287 287 285 285 284 286 286 287 288 287 286 286
277 274 275 278 280 279 277 275 274 276 278 276 273 274 277 276 276 277 278 276 276 278 279 281 283 283 283 283 284 284 285 285 286 286 286 286 284 285 286 287 287 288 287 287
274 275 279 279 277 278 276 275 275 274 277 274 274 274 273 276 276 276 277 278 277 277 278 279 280 281 281 281 282 283 284 284 284 285 285 284 284 283 282 283 284 285 286 286
274 277 278 277 276 277 275 278 278 278 275 266 275 266 273 274 274 275 277 275 277 277 278 279 279 279 279 281 281 282 283 284 284 285 284 283 281 280 281 283 284 284 285 284
273 273 275 276 277 278 277 279 279 278 274 270 271 264 271 273 274 275 276 276 277 278 278 278 278 279 280 280 280 281 281 282 283 283 283 282 282 282 282 282 282 283 283 284
273 274 274 275 278 279 280 277 277 275 273 262 266 267 270 272 276 276 278 278 278 278 278 279 279 279 279 279 280 280 281 282 282 282 282 281 281 281 281 281 281 282 283 283
274 273 274 276 276 278 278 274 264 265 263 265 269 265 273 275 277 278 279 279 279 279 279 279 279 278 278 278 278 280 281 281 282 282 282 282 281 281 281 281 280 280 280 281
270 271 273 275 273 274 275 273 266 261 264 266 268 266 275 276 277 278 279 279 279 278 279 280 280 280 279 279 278 279 281 281 282 282 282 282 282 281 281 281 281 280 280 281
270 272 273 276 274 274 272 271 272 259 251 260 267 271 276 276 276 278 278 278 277 278 279 280 280 281 280 279 279 280 280 281 281 282 282 281 281 281 281 281 281 280 281 282
275 270 273 274 274 274 273 275 267 263 262 259 266 266 273 276 277 276 278 279 280 279 279 280 281 281 281 281 280 280 281 281 282 282 282 282 281 281 281 280 280 280 281 281
274 273 270 273 271 270 269 269 269 267 266 264 261 269 275 277 279 278 280 281 282 281 280 280 281 282 282 281 280 280 280 280 280 281 281 281 281 281 281 280 281 281 281 281
277 271 265 271 270 271 271 271 271 268 265 264 265 270 278 278 279 278 279 281 281 282 281 281 281 280 280 280 280 280 280 280 281 281 280 281 281 281 280 280 281 281 281 281
276 270 264 270 271 271 269 271 272 265 265 263 266 274 277 276 277 278 278 278 280 281 280 279 279 279 280 281 281 281 281 280 281 280 280 280 280 280 280 280 281 281 281 281
280 269 272 275 275 272 267 269 271 269 263 268 271 277 280 278 276 277 278 278 279 279 281 280 280 280 281 282 281 281 281 281 280 280 280 280 280 281 281 281 281 281 280 280
275 268 268 268 271 270 271 272 271 270 274 271 278 275 280 281 282 280 281 280 278 279 278 280 281 281 281 281 281 282 282 281 280 280 280 281 281 281 280 281 281 281 280 280
274 266 266 266 267 271 271 272 272 273 275 275 277 276 283 282 280 280 279 281 280 280 280 280 282 282 282 282 282 282 282 281 281 281 280 281 280 280 280 280 280 280 280 279
269 266 265 272 264 267 271 271 274 277 276 277 273 278 281 281 281 281 281 280 281 282 281 281 281 282 283 282 283 282 282 282 281 281 281 280 280 280 280 280 279 279 277 278
267 267 269 264 262 265 276 273 277 276 279 279 279 281 283 285 287 281 281 283 282 283 281 282 282 282 283 284 283 283 282 280 281 280 280 279 279 279 279 279 278 278 277 274
273 272 270 271 263 275 276 271 274 273 277 279 278 280 282 284 279 282 280 282 283 283 284 284 283 283 283 282 283 282 280 280 280 279 279 279 279 278 278 276 275 276 274 273
269 269 274 263 269 268 279 281 277 277 273 282 281 282 282 278 275 282 285 284 281 283 284 282 281 281 280 281 281 281 279 278 278 277 278 277 276 276 274 273 272 272 272 271
258 258 267 271 272 274 278 276 278 272 277 283 284 283 283 279 283 285 279 280 281 282 281 279 278 280 281 279 280 279 278 278 278 276 274 273 273 272 273 271 270 270 268 268
267 265 261 266 267 268 277 274 277 282 284 284 280 282 282 282 284 282 282 281 280 279 276 280 278 278 276 279 280 278 278 276 275 274 272 270 270 271 271 269 267 268 267 264
272 276 276 274 275 279 277 280 281 282 282 283 281 281 281 280 280 281 281 280 280 279 278 278 278 276 276 278 280 278 276 275 274 273 271 270 270 270 269 268 266 264 265 263
277 282 278 278 281 281 282 281 279 280 281 282 281 281 280 280 281 280 279 279 279 279 278 277 277 277 275 276 277 278 275 275 275 272 270 270 269 268 268 269 268 266 263 261
282 282 280 279 282 282 283 285 285 285 285 283 283 281 282 281 281 281 282 279 279 279 278 278 278 277 277 275 274 275 275 275 273 271 270 270 269 268 267 267 266 266 265 266
283 281 279 278 284 284 284 287 288 286 286 287 284 283 281 281 281 281 281 280 279 278 278 278 277 277 275 275 273 273 274 275 272 270 269 269 267 266 266 265 262 269 268 268
Wind_Speed
7 12 8 7 5 5 5 5 4 4 4 2 2 2 7 7 6 7 8 7 6 7 5 5 7 7 6 5 5 6 5 3 2 2 1 1 1 2 2 2 5 5 4 5
8 7 4 2 5 8 6 3 4 3 5 2 3 8 9 9 7 8 8 8 8 5 5 6 7 6 7 7 7 6 5 4 2 1 1 2 2 1 1 0 3 4 5 5
7 1 3 3 6 6 5 4 2 1 5 1 7 7 5 6 5 7 8 8 7 10 9 8 8 9 8 8 8 7 6 6 4 4 2 1 1 1 1 2 2 3 4 4
6 3 1 4 3 2 3 2 1 3 4 2 6 7 6 6 9 9 12 10 12 10 8 8 9 8 9 9 7 7 6 6 4 4 2 2 2 2 2 1 1 2 2 2
0 2 3 4 1 2 1 2 3 2 3 4 5 5 9 2 8 15 15 15 15 14 12 12 11 11 9 7 8 7 6 6 5 5 4 3 3 3 1 1 2 3 2 2
4 1 2 1 1 1 0 1 4 3 2 5 5 5 9 7 11 5 11 16 17 14 13 13 10 8 8 7 8 7 8 8 7 7 7 7 7 5 3 3 3 3 3 3
1 3 1 1 2 3 4 5 5 8 7 6 1 2 16 7 9 8 12 16 15 14 14 14 12 10 10 10 10 8 9 9 8 8 8 8 8 7 7 6 4 4 2 2
4 6 5 2 1 3 2 5 7 5 3 6 4 9 11 8 6 8 8 7 9 13 14 15 16 14 13 12 11 10 10 12 9 9 9 8 8 5 6 6 5 4 4 4
6 3 1 1 2 3 3 3 4 9 1 4 5 10 14 6 10 6 9 8 11 13 14 16 14 14 13 12 13 14 13 12 10 11 8 8 8 8 7 8 5 4 5 4
6 2 0 2 1 3 3 5 4 4 2 6 6 8 10 6 10 9 10 14 13 10 11 14 14 14 13 13 12 11 12 14 12 11 10 8 8 7 7 5 7 7 6 5
3 4 1 1 10 11 4 3 2 3 5 7 3 9 11 10 11 13 17 15 15 14 15 15 15 13 14 12 11 12 12 12 10 10 8 8 7 7 6 6 7 7 5 6
6 6 5 9 1 2 2 6 7 7 8 4 3 16 5 9 7 8 12 12 10 12 13 13 12 12 12 15 14 14 12 11 12 9 7 9 7 6 6 7 7 6 7 6
9 4 3 9 3 3 6 7 4 4 4 10 7 13 4 6 8 9 11 10 10 11 10 10 10 14 16 15 14 14 13 13 11 7 8 7 7 7 8 8 7 6 6 7
6 3 10 15 12 8 8 9 15 8 5 5 24 26 17 9 10 9 12 12 12 13 14 12 11 16 16 16 16 15 15 13 10 9 9 9 9 9 9 7 6 6 6 6
6 8 3 5 5 3 6 8 18 21 24 16 28 23 29 23 21 21 17 10 9 14 12 15 17 17 16 15 15 14 14 13 12 12 11 12 10 8 7 7 7 6 6 6
5 6 3 7 5 9 17 13 11 26 17 28 23 36 11 10 9 15 16 16 17 18 18 18 18 16 16 18 17 15 15 14 13 13 13 10 7 7 8 7 6 6 6 5
9 7 5 25 4 9 25 24 30 27 18 18 25 42 8 12 19 24 18 17 21 22 17 16 19 20 18 18 18 17 17 12 14 12 11 10 8 9 7 6 6 6 4 3
9 7 4 5 4 16 10 6 17 32 25 26 28 34 27 27 25 11 12 23 22 18 17 18 16 15 16 14 13 13 11 12 12 12 11 8 8 7 6 6 6 4 4 4
6 6 4 11 10 24 34 5 8 10 22 25 29 32 31 28 10 30 17 17 24 21 20 17 15 15 12 14 15 14 11 11 11 11 9 8 8 7 7 5 5 3 3 3
4 4 12 3 9 24 36 14 10 5 35 21 23 26 27 6 7 24 4 18 20 18 12 12 11 7 10 12 12 14 13 12 12 9 9 7 7 7 6 5 4 3 2 3
3 1 17 21 21 17 5 4 6 11 6 8 12 20 18 12 18 15 3 4 8 10 11 5 8 13 14 11 13 13 12 14 10 8 8 7 6 7 6 6 3 4 4 4
15 13 8 4 4 27 6 1 22 12 15 12 5 8 12 15 17 13 14 11 6 7 3 9 9 9 7 11 13 12 14 8 9 10 9 7 6 6 5 7 4 5 5 4
13 15 14 17 11 11 8 10 7 10 17 16 7 5 6 8 8 14 14 9 8 7 6 5 8 8 6 9 12 14 8 11 11 10 9 8 8 7 6 7 6 4 4 3
7 12 17 25 27 26 25 13 9 10 18 12 10 10 5 10 10 9 8 7 7 4 6 4 6 8 9 7 6 7 12 12 12 11 10 8 9 7 5 5 5 5 4 3
20 16 25 26 25 22 25 20 19 21 22 20 17 14 17 11 14 13 11 9 10 6 7 10 12 11 10 9 8 9 12 13 12 10 9 8 7 7 7 5 4 4 2 3
18 24 21 22 22 21 27 25 25 24 25 23 20 21 16 15 18 10 12 7 6 9 9 11 10 11 11 11 10 10 10 12 14 11 8 7 7 6 6 6 4 7 6 5
Wind_Direction
13 58 44 326 344 77 76 66 72 336 336 29 28 260 237 242 257 262 260 253 239 227 224 189 200 201 198 205 206 193 184 195 182 171 177 31 62 33 41 41 47 60 56 52
36 54 323 282 43 60 47 55 10 302 350 359 342 266 229 210 226 215 230 243 237 227 213 207 205 210 200 198 209 212 205 179 181 161 197 209 168 142 134 69 78 56 52 47
93 163 338 72 32 41 35 63 345 292 328 31 329 284 219 224 211 211 225 224 226 215 215 215 210 209 209 209 202 205 201 193 182 170 155 161 90 45 31 355 25 23 37 54
79 331 71 67 58 356 56 323 30 7 34 283 29 280 275 231 238 213 225 215 221 215 217 213 211 214 209 219 210 217 205 210 210 173 161 155 154 188 214 221 268 332 355 21
259 26 20 58 28 330 140 10 40 37 66 45 355 57 271 44 251 235 225 220 217 212 206 211 211 208 210 204 205 211 213 221 217 196 190 178 194 218 232 259 288 288 300 297
112 151 63 68 42 40 347 17 34 57 76 27 262 111 278 197 218 239 219 216 212 208 208 214 213 203 212 204 202 204 206 222 214 206 207 204 210 216 224 240 254 256 249 260
132 138 118 58 72 2 58 45 337 354 9 224 119 32 247 251 237 224 218 219 215 209 205 209 205 199 204 201 203 199 202 222 213 211 212 211 217 218 228 231 229 236 252 243
145 316 164 145 137 195 86 130 152 236 257 272 13 241 252 216 237 227 237 231 208 206 208 210 207 204 205 203 199 196 198 219 211 209 218 214 218 213 218 220 223 240 228 241
133 247 114 76 135 135 197 177 144 101 61 32 240 282 289 232 251 243 230 219 221 216 212 211 209 208 205 203 204 200 204 214 209 212 213 216 217 214 224 229 223 237 240 242
194 94 222 143 131 34 169 149 73 0 315 295 283 280 247 277 245 222 230 223 223 208 208 213 213 210 209 207 207 203 207 212 213 209 210 216 217 215 225 220 229 232 241 234
129 101 269 70 203 176 154 199 79 115 159 194 282 252 217 234 225 212 225 223 217 210 210 210 211 208 205 204 203 208 207 211 216 216 211 206 221 216 219 221 234 235 247 232
200 145 181 204 121 22 235 200 161 140 231 238 155 258 243 243 272 233 236 225 222 215 210 206 203 198 199 203 203 207 206 210 219 218 200 212 219 215 220 226 232 222 236 231
190 240 357 333 358 18 217 198 175 94 63 199 180 254 192 228 254 245 250 240 232 226 209 201 188 200 205 208 207 207 205 214 210 193 200 212 220 218 227 225 228 221 231 243
132 181 178 234 225 134 182 196 196 157 162 185 230 267 242 239 237 250 241 240 234 221 215 209 212 211 209 207 202 202 207 203 192 191 198 209 212 216 223 221 224 227 216 239
147 229 202 264 279 241 210 185 192 206 220 204 263 228 247 241 240 232 231 236 226 229 216 213 216 214 209 203 203 206 207 194 186 193 199 211 211 207 211 215 220 220 218 228
168 255 113 278 286 266 264 231 227 224 228 244 269 269 244 284 249 251 231 230 228 231 224 220 220 216 209 205 203 202 202 197 180 198 203 206 199 200 209 211 212 211 222 221
159 153 107 264 11 330 276 198 216 233 210 217 234 248 286 252 246 245 241 230 231 233 224 218 213 211 209 204 200 199 200 182 187 191 198 196 187 204 201 201 198 213 222 193
156 156 160 251 39 258 282 170 201 225 230 217 248 261 259 264 269 276 214 238 236 234 222 224 217 213 210 202 197 196 183 182 182 191 193 183 185 202 187 187 195 191 182 178
177 153 217 228 210 279 267 214 162 182 258 214 231 248 256 260 333 284 227 235 234 221 225 226 215 208 197 190 189 179 173 174 176 188 185 176 176 182 181 186 183 169 144 151
42 12 213 167 219 235 276 206 171 96 271 203 214 240 247 131 255 266 272 231 234 231 220 208 197 181 177 194 170 171 176 168 184 172 187 158 158 164 169 164 144 109 110 120
133 292 222 233 239 259 242 84 108 219 282 194 209 233 244 204 222 248 312 297 235 235 230 166 167 190 199 166 168 176 161 184 172 141 129 144 147 145 142 124 105 124 108 100
185 174 197 203 255 242 125 136 221 266 272 287 208 230 242 234 255 260 270 266 263 245 204 202 194 199 161 168 170 164 177 146 136 133 128 125 127 120 119 124 112 109 109 101
237 212 225 200 219 223 212 225 238 253 267 269 267 264 226 237 245 258 262 257 249 236 215 192 197 160 167 169 172 163 156 138 129 124 126 125 120 117 126 127 123 104 104 108
248 241 237 250 247 257 253 255 256 258 266 270 259 268 232 238 248 261 269 255 239 213 221 155 150 174 169 169 140 131 137 132 131 129 130 128 123 123 115 107 116 117 123 148
249 242 245 255 257 274 266 262 272 275 274 261 257 243 248 244 247 235 247 232 225 181 195 191 178 172 168 152 129 133 137 135 127 123 127 127 124 124 114 105 121 117 154 163
225 240 246 257 262 263 266 268 260 260 264 263 254 260 247 241 249 249 252 238 201 201 180 201 170 161 154 149 139 132 141 136 131 127 130 132 127 120 127 131 93 77 85 52